Retour au catalogue

STARLINK-30043

ActifCommunicationsVLEO
NORAD 57417·PAYLOAD·🇺🇸 United States

Lancé Jul 20, 2023 depuis Vandenberg Space Force Base

Loading…

Prochains Passages (prochaines 24 heures)

TLE

FraisSource: CelesTrak SupGP

Époque: Sep 14, 2026, 22:14 UTC

1 57417C 23102P   26257.92687500  .00032193  00000+0  11663-2 0  2574
2 57417  43.0000 259.9270 0001557 268.1503 343.1423 15.27555470    12

Suivez STARLINK-30043 en temps réel avec AllMySat

Download on the App Store